Location: Boley
(53.1150°N, 8.2269°W)
Time: 00:39:12
(UTC+00:00)

Cosmos 2026 Rocket - Pass Details

Date: 15 May 2026
Orbit: 939 x 999 km, 82.9° (Epoch: 9 June)

Event Time Altitude Azimuth Distance (km) Brightness Sun altitude
Rises 22:27:59 0° 349° (N) 3,731 8.6 -13.2°
Reaches altitude 10° 22:30:32 10° 351° (N) 2,780 7.6 -13.4°
Maximum altitude 22:36:57 79° 78° (ENE) 1,023 4.1 -13.9°
Enters shadow 22:41:40 19° 164° (SSE) 2,160 5.2 -14.2°
